Showing default

QUBE2, 69023

Orbit data source: Space-Track

QUBE2, 69023 is a payload satellite owned by ZfT (DE) in SSO that was launched on Sun, 03 May 2026 UTC via an FALCON 9 launch vehicle from the Air Force Western Test Range (AFWTR). Payload-class satellites include a variety of spacecraft equipped with specific instruments for various scientific and technological missions. These include communications satellites like Starlink; space stations such as the ISS; scientific satellites like the Hubble; Earth observation satellites from companies like Planet Labs, Umbra, and HawkEye 360; GPS; miniature CubeSats for education and research; and military/defense satellites.

Loading next visibility...
Identifier
69023, 2026-100AV
Orbit
SSO
Country
Flag of DEDE / GER
Related business
Manufacturer
NanoAvionics
Mission
Operational Commercial Communications
Bus & Motor
CUBESAT 3U, Unknown motor
Mass
4 kg wet, 4 kg dry
Launch date (UTC)
2026-05-03 (3 months ago)
Launch vehicle
FALCON 9
Launch site
Air Force Western Test Range (AFWTR)
Object type
Payload
Rocket body
Debris
Shape & HBR
Box, 1.1 m
Radar Cross Section
0.035 m², Medium (>0.1 m² and < 1m²)

Expand to show TLE details & history
Last TLE update: 21 hours ago

TLE from 21 hours ago
0 QUBE2
1 69023U 26100AV  26207.25897989  .00008581  00000-0  39266-3 0  9994
2 69023  97.4027 104.3849 0002169 178.6999 181.4243 15.20757354 12743
Epoch: 2026-07-26T06:12Z
TLE epoch observation values (Epoch: 2026-07-26T06:12:55.862Z)
Latitude
0.00002°
Longitude
67.19266°
Altitude
508.139 km
Speed
7.609 km/s
True Right ascension
06h 57m 32s
True Declination
0° 00' 00"
Sunlit
Object was in daylight at epoch
Visualization orbit readout
Latitude
Unknown
Longitude
Unknown
Altitude
Unknown
Speed
Unknown
Apparent Right ascension
Unknown
Apparent Declination
Unknown
Sunlit
N/A
Visualization observer readout
Local Sidereal Time
16:33:15
Azimuth
Unknown
Elevation
Unknown
Doppler factor
Unknown
Orbital elements
Apogee altitude
502.012 km
Perigee altitude
499.028 km
Semi-major axis
6,878.657 km
Eccentricity
0.00022
Inclination
97.4027°
RAAN
104.3849°
Arg. of periapsis
178.6999°
True anomaly
181.42368°
Mean anomaly
181.4243°
Eccentric anomaly
181.42399°
Mean motion
3.80441 °/min
Orbital period
94.63 mins
BSTAR
0.00039266
Loading maneuver chart data...
Computing Atmospheric mass density...
Loading historical data...
Loading historical data...
Loading historical data...
Loading historical data...
Loading historical data...
Loading historical data...
Loading historical data...

Documentation

Showing up to 5 results
|